Home > Weather > Hilden > Past weeks

Flag for Germany Past Weather in Hilden, North Rhine-Westphalia, Germany — Yesterday and Last 2 Weeks

Now
66 °F

Partly sunny.


Feels Like: 66 °F
Forecast: 54 / 71 °F
Wind: 3 mph from North

Location: Duesseldorf

Current Time: May 26, 2016 at 12:55:37 PM

Latest Report: May 26, 2016 at 12:20 PM


Visibility: N/A

Pressure: 30.01 "Hg

Humidity: 52%

Dew Point: 48 °F

Location of HildenLocation

Past Weather in Hilden — Graph

°F

Hilden Temperature Yesterday

Maximum temperature yesterday: 64 °F (at 3:50 PM)
Minimum temperature yesterday: 50 °F (at 12:20 AM)
Average temperature yesterday: 56 °F

High & Low Weather Summary for the Past Weeks

 TemperatureHumidityPressure
High79 °F (May 11, 4:50 PM)100% (May 19, 3:50 AM)30.12 "Hg (May 19, 3:50 AM)
Low41 °F (May 15, 5:20 AM)27% (May 13, 4:20 PM)29.47 "Hg (May 12, 1:20 PM)
Average58 °F70%29.89 "Hg
* Reported May 11 11:20 AM — May 26 11:20 AM, Hilden, Weather by CustomWeather, © 2016

Note: Actual official high and low records may vary slightly from our data, if they occured in-between our weather recording intervals... More about our weather records

Advertising

Hilden Weather History for the Previous 24 Hours

Scroll right to see more
 ConditionsComfort  
Time TempWeatherWind HumidityBarometerVisibility
11:20 AM
Thu, May 26
64 °FScattered clouds.5 mph60%30.01 "HgN/A
10:50 AM64 °FPassing clouds.3 mph64%30.01 "HgN/A
10:20 AM63 °FPassing clouds.3 mph68%30.01 "HgN/A
9:50 AM63 °FPassing clouds.2 mph68%30.04 "HgN/A
9:20 AM61 °FSunny.5 mph72%30.04 "Hg10 mi
8:50 AM59 °FPassing clouds.6 mph77%30.04 "HgN/A
8:20 AM57 °FScattered clouds.3 mph82%30.01 "HgN/A
7:50 AM55 °FScattered clouds.3 mph88%30.01 "HgN/A
7:20 AM54 °FPartly sunny.2 mph94%30.01 "HgN/A
6:50 AM52 °FBroken clouds.2 mph94%30.01 "HgN/A
6:20 AM50 °FClear.5 mph100%30.01 "Hg10 mi
5:50 AM48 °FFog.3 mph94%30.01 "HgN/A
5:20 AM46 °FFog.2 mph100%30.01 "HgN/A
4:50 AM46 °FFog.3 mph93%30.01 "HgN/A
4:20 AM46 °FFog.2 mph100%30.01 "HgN/A
3:50 AM48 °FFog.2 mph100%30.01 "HgN/A
3:20 AM48 °FFog.3 mph94%30.01 "HgN/A
2:50 AM50 °FFog.2 mph94%30.01 "HgN/A
2:20 AM52 °FClear.3 mph94%30.01 "Hg10 mi
1:50 AM52 °FClear.2 mph94%30.01 "Hg10 mi
1:20 AM52 °FClear.2 mph94%30.01 "Hg10 mi
12:50 AM52 °FClear.1 mph94%30.01 "Hg10 mi
12:20 AM52 °FClear.5 mph94%30.01 "Hg10 mi
11:50 PM
Wed, May 25
52 °FClear.2 mph94%30.01 "Hg10 mi
11:20 PM52 °FClear.1 mph94%30.01 "Hg10 mi
10:50 PM52 °FClear.1 mph94%29.98 "Hg10 mi
10:20 PM54 °FSunny.2 mph88%29.98 "Hg10 mi
9:50 PM57 °FSunny.2 mph77%29.98 "Hg10 mi
9:20 PM59 °FPartly sunny.2 mph77%29.98 "HgN/A
8:50 PM61 °FPartly sunny.3 mph68%29.98 "HgN/A
8:20 PM61 °FPartly sunny.5 mph68%29.98 "HgN/A
7:50 PM61 °FPartly sunny.3 mph68%29.98 "HgN/A
7:20 PM61 °FPartly sunny.5 mph63%29.98 "HgN/A
6:50 PM61 °FPartly sunny.7 mph63%29.98 "HgN/A
6:20 PM61 °FBroken clouds.7 mph63%29.98 "HgN/A
5:50 PM61 °FBroken clouds.6 mph63%29.98 "HgN/A
5:20 PM63 °FPartly sunny.6 mph56%29.98 "HgN/A
4:50 PM64 °FScattered clouds.7 mph52%29.95 "HgN/A
4:20 PM64 °FScattered clouds.6 mph52%29.95 "HgN/A
3:50 PM64 °FScattered clouds.6 mph52%29.98 "HgN/A
3:20 PM63 °FScattered clouds.8 mph56%29.98 "HgN/A
2:50 PM61 °FPartly sunny.6 mph59%29.98 "HgN/A
2:20 PM61 °FPartly sunny.8 mph59%29.98 "HgN/A
1:50 PM61 °FPartly sunny.6 mph59%29.98 "HgN/A
1:20 PM61 °FScattered clouds.5 mph59%29.98 "HgN/A
12:50 PM63 °FScattered clouds.5 mph59%29.98 "HgN/A
12:20 PM57 °FScattered clouds.6 mph63%29.98 "HgN/A
Weather by CustomWeather, © 2016

See weather overviewHow to use our weather pages